| time (UTC) | temp F | wind direction | speed MPH | gust MPH | rain 1hr in | rain 24hr in | rain mn in | humidity % | barometer mb |
| 20260503183005 | 68 | 228 | 16.0 | 26.0 | 0.00 | 0.00 | 0.00 | 44 | 1021.7 |
| 20260503181505 | 68 | 253 | 13.0 | 24.0 | 0.00 | 0.00 | 0.00 | 44 | 1021.9 |
| 20260503180002 | 68 | 236 | 14.0 | 25.0 | 0.00 | 0.00 | 0.00 | 44 | 1022.1 |
| 20260503174559 | 67 | 217 | 14.0 | 29.0 | 0.00 | 0.00 | 0.00 | 44 | 1022.5 |
| 20260503173101 | 67 | 217 | 13.0 | 23.0 | 0.00 | 0.00 | 0.00 | 45 | 1022.8 |
| 20260503171559 | 67 | 212 | 15.0 | 24.0 | 0.00 | 0.00 | 0.00 | 45 | 1023.2 |
| 20260503081537 | 47 | 118 | 0.0 | 0.0 | 0.00 | 0.00 | 0.00 | 80 | 1023.3 |
| 20260503071531 | 48 | 118 | 2.0 | 3.0 | 0.00 | 0.00 | 0.00 | 79 | 1023.3 |
| 20260503054517 | 50 | 111 | 3.0 | 4.0 | 0.00 | 0.00 | 0.00 | 74 | 1023.1 |
| 20260503053017 | 51 | 112 | 3.0 | 4.0 | 0.00 | 0.00 | 0.00 | 73 | 1023.1 |
| 20260503051513 | 51 | 113 | 2.0 | 6.0 | 0.00 | 0.00 | 0.00 | 72 | 1023.1 |
| 20260503050011 | 51 | 109 | 3.0 | 6.0 | 0.00 | 0.00 | 0.00 | 72 | 1023.1 |
| 20260503044520 | 51 | 101 | 3.0 | 4.0 | 0.00 | 0.00 | 0.00 | 71 | 1022.9 |
| 20260503043011 | 51 | 97 | 3.0 | 6.0 | 0.00 | 0.00 | 0.00 | 70 | 1023.0 |
| 20260503041509 | 52 | 71 | 2.0 | 4.0 | 0.00 | 0.00 | 0.00 | 69 | 1022.9 |
| 20260503040007 | 52 | 69 | 3.0 | 5.0 | 0.00 | 0.00 | 0.00 | 68 | 1022.8 |
| 20260503034506 | 53 | 90 | 2.0 | 5.0 | 0.00 | 0.00 | 0.00 | 67 | 1022.8 |
| 20260503033006 | 53 | 88 | 2.0 | 6.0 | 0.00 | 0.00 | 0.00 | 65 | 1022.8 |
| 20260503031505 | 54 | 63 | 5.0 | 11.0 | 0.00 | 0.00 | 0.00 | 64 | 1022.8 |
| 20260503030005 | 54 | 61 | 6.0 | 11.0 | 0.00 | 0.00 | 0.00 | 62 | 1022.7 |
| 20260503024502 | 54 | 63 | 6.0 | 12.0 | 0.00 | 0.00 | 0.00 | 63 | 1022.6 |
| 20260503023003 | 55 | 67 | 6.0 | 12.0 | 0.00 | 0.00 | 0.00 | 62 | 1022.4 |
| 20260503021607 | 55 | 55 | 5.0 | 11.0 | 0.00 | 0.00 | 0.00 | 61 | 1022.2 |
| 20260503020108 | 56 | 69 | 6.0 | 11.0 | 0.00 | 0.00 | 0.00 | 60 | 1022.1 |
| 20260503014555 | 57 | 63 | 8.0 | 13.0 | 0.00 | 0.00 | 0.00 | 59 | 1021.9 |
| 20260503013105 | 57 | 68 | 9.0 | 14.0 | 0.00 | 0.00 | 0.00 | 59 | 1021.7 |
| 20260503011603 | 58 | 57 | 5.0 | 9.0 | 0.00 | 0.00 | 0.00 | 57 | 1021.5 |
| 20260503010055 | 59 | 39 | 3.0 | 11.0 | 0.00 | 0.00 | 0.00 | 55 | 1021.3 |
| 20260503004550 | 60 | 51 | 2.0 | 8.0 | 0.00 | 0.00 | 0.00 | 53 | 1021.0 |
| 20260503003059 | 61 | 30 | 3.0 | 8.0 | 0.00 | 0.00 | 0.00 | 51 | 1020.9 |
| 20260503001548 | 62 | 43 | 3.0 | 9.0 | 0.00 | 0.00 | 0.00 | 50 | 1020.7 |
| 20260503000100 | 63 | 330 | 4.0 | 9.0 | 0.00 | 0.00 | 0.00 | 48 | 1020.5 |
| 20260502234547 | 63 | 37 | 4.0 | 10.0 | 0.00 | 0.00 | 0.00 | 46 | 1020.4 |
| 20260502233050 | 64 | 19 | 9.0 | 14.0 | 0.00 | 0.00 | 0.00 | 41 | 1020.3 |
| 20260502231547 | 65 | 46 | 8.0 | 16.0 | 0.00 | 0.00 | 0.00 | 41 | 1020.1 |
| 20260502230045 | 65 | 355 | 8.0 | 15.0 | 0.00 | 0.00 | 0.00 | 41 | 1020.1 |
| 20260502224546 | 65 | 355 | 10.0 | 20.0 | 0.00 | 0.00 | 0.00 | 41 | 1020.0 |
| 20260502223043 | 66 | 360 | 13.0 | 17.0 | 0.00 | 0.00 | 0.00 | 39 | 1020.0 |
| 20260502221544 | 65 | 307 | 6.0 | 16.0 | 0.00 | 0.00 | 0.00 | 42 | 1019.9 |
| 20260502220043 | 65 | 338 | 10.0 | 20.0 | 0.00 | 0.00 | 0.00 | 40 | 1019.9 |
| 20260502214541 | 66 | 5 | 5.0 | 19.0 | 0.00 | 0.00 | 0.00 | 41 | 1019.8 |
| 20260502213041 | 66 | 323 | 12.0 | 18.0 | 0.00 | 0.00 | 0.00 | 39 | 1019.8 |
| 20260502211550 | 65 | 349 | 12.0 | 19.0 | 0.00 | 0.00 | 0.00 | 40 | 1019.7 |
| 20260502210039 | 66 | 350 | 8.0 | 20.0 | 0.00 | 0.00 | 0.00 | 38 | 1019.7 |
| 20260502204538 | 65 | 329 | 13.0 | 20.0 | 0.00 | 0.00 | 0.00 | 38 | 1019.8 |
| 20260502203037 | 66 | 304 | 13.0 | 24.0 | 0.00 | 0.00 | 0.00 | 37 | 1020.0 |
| 20260502201537 | 65 | 328 | 11.0 | 21.0 | 0.00 | 0.00 | 0.00 | 38 | 1020.1 |
| 20260502200043 | 66 | 321 | 11.0 | 20.0 | 0.00 | 0.00 | 0.00 | 39 | 1020.2 |
| 20260502194535 | 65 | 312 | 10.0 | 20.0 | 0.00 | 0.00 | 0.00 | 40 | 1020.1 |
| 20260502193035 | 65 | 307 | 11.0 | 23.0 | 0.00 | 0.00 | 0.00 | 39 | 1020.1 |
| 20260502191537 | 66 | 355 | 12.0 | 21.0 | 0.00 | 0.00 | 0.00 | 38 | 1020.2 |
| 20260502190033 | 66 | 277 | 16.0 | 21.0 | 0.00 | 0.00 | 0.00 | 38 | 1020.3 |
| 20260502184536 | 66 | 297 | 14.0 | 23.0 | 0.00 | 0.00 | 0.00 | 42 | 1020.3 |